QPF
0.01 0.00 0.02 0.01 0.00 0.01 0.01 0.01 0.01 0.00 0.00 0.00 0.00 0.00 0.00 0.00 0.00 0.00 0.00 0.00 0.01 0.01 0.02 0.02 0.09 0.12 0.04 0.00 0.00 0.00 0.00 0.00 0.00 0.00 0.00 0.00 0.00 0.00 0.00 0.00 0.00 0.01 0.01
0.01 0.00 0.02 0.01 0.01 0.02 0.02 0.01 0.01 0.01 0.00 0.00 0.00 0.00 0.00 0.00 0.00 0.00 0.00 0.01 0.02 0.02 0.01 0.02 0.07 0.04 0.00 0.00 0.00 0.00 0.00 0.00 0.00 0.00 0.00 0.00 0.00 0.00 0.00 0.00 0.01 0.01 0.00
0.01 0.01 0.01 0.01 0.01 0.01 0.00 0.01 0.01 0.01 0.00 0.00 0.00 0.00 0.00 0.00 0.00 0.00 0.00 0.01 0.01 0.01 0.01 0.01 0.00 0.00 0.00 0.00 0.00 0.00 0.00 0.00 0.00 0.00 0.00 0.00 0.01 0.01 0.00 0.00 0.02 0.01 0.00
0.01 0.01 0.01 0.01 0.00 0.00 0.01 0.00 0.01 0.00 0.00 0.00 0.00 0.00 0.00 0.00 0.00 0.00 0.00 0.01 0.01 0.01 0.01 0.00 0.00 0.00 0.00 0.00 0.00 0.00 0.00 0.00 0.00 0.00 0.00 0.00 0.00 0.00 0.00 0.00 0.00 0.00 0.00
0.02 0.01 0.01 0.01 0.00 0.00 0.01 0.00 0.00 0.00 0.00 0.00 0.00 0.00 0.00 0.01 0.00 0.00 0.00 0.01 0.01 0.01 0.00 0.00 0.00 0.00 0.00 0.00 0.00 0.00 0.00 0.00 0.00 0.00 0.00 0.00 0.00 0.00 0.01 0.01 0.00 0.00 0.00
0.05 0.02 0.01 0.02 0.01 0.00 0.03 0.01 0.00 0.00 0.00 0.00 0.00 0.00 0.00 0.01 0.00 0.00 0.01 0.01 0.01 0.00 0.00 0.00 0.00 0.00 0.00 0.00 0.00 0.00 0.00 0.00 0.00 0.00 0.00 0.00 0.00 0.00 0.00 0.00 0.00 0.01 0.01
0.06 0.09 0.02 0.03 0.06 0.05 0.02 0.01 0.01 0.00 0.00 0.00 0.00 0.00 0.00 0.00 0.00 0.00 0.00 0.00 0.00 0.00 0.00 0.00 0.00 0.00 0.00 0.00 0.00 0.00 0.00 0.00 0.00 0.00 0.00 0.00 0.00 0.00 0.00 0.00 0.00 0.00 0.00
0.01 0.07 0.12 0.10 0.13 0.14 0.10 0.03 0.03 0.02 0.01 0.00 0.00 0.00 0.00 0.00 0.00 0.00 0.00 0.00 0.00 0.00 0.00 0.00 0.00 0.00 0.00 0.00 0.00 0.00 0.00 0.00 0.00 0.00 0.00 0.00 0.00 0.00 0.00 0.00 0.00 0.00 0.00
0.01 0.01 0.02 0.05 0.12 0.19 0.26 0.25 0.05 0.01 0.03 0.01 0.01 0.02 0.01 0.00 0.00 0.00 0.00 0.00 0.00 0.00 0.00 0.00 0.00 0.00 0.00 0.00 0.00 0.00 0.00 0.00 0.00 0.00 0.00 0.00 0.00 0.00 0.00 0.00 0.00 0.00 0.00
0.00 0.00 0.00 0.01 0.05 0.09 0.22 0.24 0.18 0.05 0.07 0.04 0.03 0.01 0.02 0.00 0.03 0.01 0.00 0.00 0.00 0.00 0.00 0.00 0.00 0.00 0.00 0.00 0.00 0.00 0.00 0.00 0.00 0.00 0.00 0.00 0.00 0.00 0.00 0.00 0.00 0.00 0.00
0.00 0.00 0.00 0.00 0.00 0.03 0.07 0.17 0.22 0.21 0.19 0.20 0.07 0.03 0.03 0.03 0.07 0.04 0.00 0.00 0.00 0.00 0.00 0.00 0.00 0.00 0.00 0.00 0.00 0.00 0.00 0.00 0.00 0.00 0.00 0.00 0.00 0.00 0.00 0.00 0.00 0.00 0.00
0.00 0.00 0.00 0.00 0.00 0.01 0.03 0.07 0.14 0.18 0.21 0.20 0.05 0.02 0.04 0.04 0.03 0.02 0.00 0.00 0.00 0.00 0.00 0.00 0.00 0.00 0.00 0.00 0.00 0.00 0.00 0.00 0.00 0.00 0.00 0.00 0.00 0.00 0.00 0.00 0.00 0.00 0.00
0.00 0.00 0.00 0.00 0.00 0.01 0.01 0.04 0.11 0.11 0.13 0.19 0.22 0.06 0.02 0.05 0.03 0.01 0.01 0.00 0.00 0.00 0.00 0.00 0.00 0.00 0.00 0.00 0.00 0.00 0.00 0.00 0.00 0.00 0.00 0.00 0.00 0.00 0.00 0.00 0.00 0.00 0.00
0.00 0.00 0.00 0.00 0.00 0.00 0.00 0.00 0.05 0.07 0.08 0.10 0.07 0.14 0.06 0.03 0.01 0.00 0.00 0.00 0.00 0.00 0.00 0.00 0.00 0.00 0.00 0.00 0.00 0.00 0.00 0.00 0.00 0.00 0.00 0.00 0.00 0.00 0.00 0.00 0.00 0.00 0.00
0.00 0.00 0.00 0.00 0.00 0.00 0.00 0.00 0.01 0.04 0.04 0.06 0.04 0.03 0.03 0.01 0.00 0.00 0.00 0.00 0.00 0.00 0.00 0.00 0.00 0.00 0.00 0.00 0.00 0.00 0.00 0.00 0.00 0.00 0.00 0.00 0.00 0.00 0.00 0.00 0.00 0.00 0.00
0.00 0.00 0.00 0.00 0.00 0.00 0.00 0.00 0.00 0.01 0.05 0.07 0.04 0.04 0.03 0.01 0.00 0.00 0.00 0.00 0.00 0.00 0.00 0.00 0.00 0.00 0.00 0.00 0.00 0.00 0.00 0.00 0.00 0.00 0.00 0.00 0.00 0.00 0.00 0.00 0.00 0.00 0.00
0.00 0.00 0.00 0.00 0.00 0.00 0.00 0.00 0.00 0.00 0.03 0.07 0.04 0.04 0.02 0.01 0.00 0.00 0.00 0.00 0.00 0.00 0.00 0.00 0.00 0.00 0.00 0.00 0.00 0.00 0.00 0.00 0.00 0.00 0.00 0.00 0.00 0.00 0.00 0.00 0.00 0.01 0.01
0.00 0.00 0.00 0.00 0.00 0.00 0.00 0.00 0.00 0.00 0.01 0.05 0.05 0.05 0.03 0.00 0.00 0.00 0.00 0.00 0.00 0.00 0.00 0.00 0.00 0.00 0.00 0.00 0.00 0.00 0.00 0.00 0.00 0.00 0.00 0.00 0.00 0.00 0.00 0.00 0.00 0.00 0.01
0.00 0.00 0.00 0.00 0.00 0.00 0.00 0.00 0.00 0.00 0.00 0.02 0.05 0.06 0.04 0.01 0.00 0.00 0.00 0.00 0.00 0.00 0.00 0.00 0.00 0.00 0.00 0.00 0.00 0.00 0.00 0.00 0.00 0.00 0.00 0.00 0.00 0.00 0.00 0.00 0.00 0.00 0.00
0.00 0.00 0.00 0.00 0.00 0.00 0.00 0.00 0.00 0.00 0.00 0.00 0.03 0.04 0.04 0.02 0.01 0.00 0.00 0.00 0.00 0.00 0.00 0.00 0.00 0.00 0.00 0.00 0.00 0.00 0.00 0.00 0.00 0.00 0.00 0.00 0.00 0.00 0.00 0.00 0.00 0.00 0.00
0.00 0.00 0.00 0.00 0.00 0.00 0.00 0.00 0.00 0.00 0.00 0.00 0.00 0.02 0.02 0.03 0.01 0.01 0.00 0.00 0.01 0.00 0.00 0.00 0.00 0.00 0.00 0.00 0.00 0.00 0.00 0.00 0.00 0.00 0.00 0.00 0.00 0.00 0.00 0.00 0.00 0.00 0.00
0.00 0.00 0.00 0.00 0.00 0.00 0.00 0.00 0.00 0.00 0.00 0.00 0.00 0.01 0.02 0.02 0.03 0.01 0.00 0.01 0.02 0.00 0.00 0.00 0.00 0.00 0.00 0.00 0.00 0.00 0.00 0.00 0.00 0.00 0.00 0.00 0.00 0.00 0.00 0.00 0.00 0.00 0.00
0.00 0.00 0.00 0.00 0.00 0.00 0.00 0.00 0.00 0.00 0.00 0.00 0.00 0.01 0.02 0.03 0.01 0.01 0.00 0.01 0.02 0.02 0.00 0.00 0.00 0.00 0.00 0.00 0.00 0.00 0.00 0.00 0.00 0.00 0.00 0.00 0.00 0.00 0.00 0.00 0.00 0.00 0.00
0.00 0.00 0.00 0.00 0.00 0.00 0.00 0.00 0.00 0.00 0.00 0.00 0.00 0.00 0.00 0.02 0.02 0.01 0.00 0.02 0.03 0.03 0.01 0.00 0.00 0.00 0.00 0.00 0.00 0.00 0.00 0.00 0.00 0.00 0.00 0.00 0.00 0.00 0.00 0.00 0.00 0.00 0.00
0.00 0.00 0.00 0.00 0.00 0.00 0.00 0.00 0.00 0.00 0.00 0.00 0.00 0.00 0.00 0.01 0.03 0.03 0.02 0.02 0.02 0.02 0.03 0.01 0.01 0.00 0.00 0.00 0.00 0.00 0.00 0.00 0.00 0.00 0.00 0.00 0.00 0.00 0.00 0.00 0.00 0.00 0.00
0.00 0.00 0.00 0.00 0.00 0.00 0.00 0.00 0.00 0.00 0.00 0.00 0.00 0.00 0.00 0.01 0.01 0.03 0.03 0.02 0.00 0.01 0.03 0.02 0.03 0.03 0.01 0.00 0.00 0.00 0.00 0.00 0.00 0.00 0.00 0.00 0.00 0.00 0.00 0.00 0.00 0.00 0.00
MSLP
1013.32 1013.04 1014.00 1014.26 1014.49 1014.67 1014.81 1015.01 1015.25 1015.59 1015.76 1015.93 1016.07 1016.36 1016.61 1016.77 1016.91 1016.88 1016.94 1016.95 1016.94 1016.90 1016.88 1017.04 1017.30 1017.47 1017.67 1017.86 1018.09 1018.24 1018.25 1018.32 1018.44 1018.45 1018.41 1018.38 1018.38 1018.36 1018.32 1018.19 1017.96 1018.10 1018.20
1013.64 1013.13 1014.07 1014.41 1014.65 1014.83 1015.07 1015.24 1015.56 1015.82 1016.09 1016.18 1016.44 1016.56 1016.83 1016.96 1017.07 1017.07 1017.09 1017.07 1017.02 1017.05 1017.17 1017.44 1017.67 1017.73 1018.05 1018.39 1018.53 1018.72 1018.78 1018.76 1018.89 1018.92 1018.83 1018.84 1018.78 1018.64 1018.64 1018.61 1018.52 1018.56 1018.61
1013.57 1013.27 1013.94 1014.44 1014.81 1015.05 1015.27 1015.56 1015.83 1016.06 1016.20 1016.40 1016.64 1016.92 1017.02 1017.15 1017.27 1017.27 1017.24 1017.23 1017.25 1017.38 1017.52 1017.67 1017.96 1018.21 1018.47 1018.74 1018.95 1019.08 1019.24 1019.16 1019.19 1019.10 1018.84 1018.64 1018.95 1019.15 1019.07 1019.11 1018.98 1018.99 1018.99
1013.65 1013.34 1013.49 1014.45 1014.82 1015.10 1015.41 1015.56 1015.89 1016.09 1016.34 1016.58 1016.82 1016.99 1017.26 1017.32 1017.44 1017.50 1017.45 1017.52 1017.60 1017.74 1017.91 1018.24 1018.36 1018.69 1018.88 1019.01 1019.27 1019.45 1019.60 1019.66 1019.40 1019.08 1018.60 1018.76 1019.12 1019.42 1019.41 1019.40 1019.43 1019.42 1019.43
1013.48 1013.35 1013.57 1014.43 1014.78 1015.08 1015.33 1015.63 1015.90 1016.17 1016.41 1016.64 1016.88 1017.13 1017.24 1017.47 1017.49 1017.63 1017.70 1017.88 1018.01 1018.12 1018.35 1018.64 1018.82 1018.99 1019.23 1019.34 1019.46 1019.75 1019.92 1019.90 1019.57 1018.98 1019.25 1019.28 1019.26 1019.80 1019.80 1019.74 1019.82 1019.80 1019.67
1013.54 1013.35 1013.82 1014.51 1014.74 1015.06 1015.43 1015.68 1015.98 1016.19 1016.45 1016.71 1016.81 1017.07 1017.24 1017.42 1017.67 1017.78 1018.07 1018.22 1018.35 1018.55 1018.71 1018.87 1019.19 1019.35 1019.43 1019.64 1019.73 1019.95 1020.16 1019.96 1019.62 1019.34 1019.50 1019.80 1019.64 1020.06 1020.17 1020.20 1020.19 1020.08 1020.08
1014.27 1013.66 1013.88 1014.56 1014.87 1015.04 1015.44 1015.64 1016.00 1016.29 1016.52 1016.78 1016.97 1017.06 1017.28 1017.48 1017.74 1018.05 1018.27 1018.59 1018.71 1018.86 1018.99 1019.13 1019.38 1019.66 1019.70 1019.84 1020.08 1020.22 1020.28 1020.17 1019.58 1019.53 1019.59 1020.11 1020.19 1020.41 1020.42 1020.52 1020.55 1020.47 1020.48
1015.47 1014.93 1014.20 1014.71 1015.14 1015.41 1015.45 1015.72 1016.02 1016.39 1016.66 1016.92 1017.12 1017.26 1017.39 1017.57 1017.75 1018.18 1018.52 1018.71 1018.96 1019.07 1019.21 1019.37 1019.58 1019.83 1020.04 1020.13 1020.30 1020.56 1020.60 1020.24 1019.82 1019.79 1020.04 1020.20 1020.57 1020.57 1020.69 1020.78 1020.89 1020.89 1020.88
1015.94 1015.45 1015.13 1014.59 1015.09 1015.58 1015.63 1015.83 1016.15 1016.37 1016.69 1016.97 1017.24 1017.38 1017.59 1017.82 1018.03 1018.29 1018.54 1018.81 1019.03 1019.28 1019.43 1019.57 1019.82 1019.98 1020.18 1020.45 1020.62 1020.70 1020.85 1020.51 1019.95 1020.10 1020.21 1020.57 1020.82 1020.85 1020.84 1020.99 1021.02 1021.02 1021.17
1016.32 1016.04 1015.72 1015.13 1014.93 1015.13 1015.57 1015.99 1016.14 1016.27 1016.65 1016.95 1017.30 1017.58 1017.79 1017.98 1018.24 1018.50 1018.75 1018.91 1019.11 1019.38 1019.66 1019.75 1019.95 1020.19 1020.34 1020.64 1020.87 1020.95 1021.02 1020.76 1020.24 1020.35 1020.20 1020.64 1020.98 1021.07 1021.11 1021.17 1021.30 1021.34 1021.40
1016.20 1016.13 1016.01 1015.55 1015.39 1015.22 1015.32 1015.74 1016.08 1016.27 1016.57 1016.87 1017.33 1017.70 1017.98 1017.81 1018.22 1018.59 1018.62 1019.12 1019.32 1019.53 1019.78 1020.05 1020.19 1020.41 1020.67 1020.90 1021.10 1021.18 1021.05 1020.23 1020.25 1020.34 1020.42 1021.20 1021.17 1021.25 1021.41 1021.49 1021.54 1021.58 1021.62
1016.37 1016.41 1016.34 1016.03 1015.88 1015.60 1015.28 1015.34 1015.77 1016.15 1016.34 1016.60 1016.89 1017.34 1017.47 1017.47 1017.67 1018.17 1018.64 1019.26 1019.57 1019.79 1019.98 1020.18 1020.47 1020.73 1020.80 1020.65 1021.09 1021.34 1020.35 1020.30 1020.32 1020.44 1020.68 1021.36 1021.31 1021.39 1021.58 1021.74 1021.83 1021.83 1021.81
1016.55 1016.45 1016.41 1016.22 1016.15 1015.73 1015.57 1015.24 1015.53 1015.83 1016.16 1016.44 1016.48 1016.73 1016.96 1017.50 1017.74 1018.03 1018.48 1019.12 1019.34 1019.96 1019.90 1020.21 1020.50 1020.41 1020.08 1020.10 1020.52 1020.40 1020.27 1020.24 1020.32 1020.58 1021.14 1021.52 1021.47 1021.55 1021.73 1021.89 1021.98 1022.03 1021.96
1016.33 1016.27 1016.28 1016.25 1016.16 1015.85 1015.73 1015.29 1015.05 1015.39 1015.70 1016.05 1016.35 1016.65 1016.78 1017.23 1017.67 1017.60 1018.04 1018.59 1018.86 1019.17 1019.25 1019.62 1019.68 1019.80 1020.12 1020.14 1020.21 1020.25 1020.34 1020.36 1020.37 1020.55 1021.23 1021.67 1021.65 1021.66 1021.80 1021.90 1021.94 1021.99 1022.02
1016.14 1016.04 1015.98 1016.04 1016.04 1015.82 1015.74 1015.46 1015.04 1014.89 1015.04 1015.47 1015.85 1016.08 1016.48 1016.98 1017.35 1017.37 1017.86 1018.28 1018.60 1018.52 1018.84 1019.17 1019.44 1019.61 1019.90 1020.02 1020.16 1020.29 1020.48 1020.48 1020.55 1020.61 1020.64 1021.70 1021.74 1021.76 1021.81 1021.89 1021.89 1021.93 1021.95
1015.80 1015.56 1015.66 1015.63 1015.63 1015.63 1015.58 1015.45 1015.08 1014.94 1014.80 1014.97 1015.24 1015.65 1015.93 1016.24 1016.71 1017.24 1017.61 1017.82 1017.97 1018.34 1018.50 1018.88 1019.03 1019.39 1019.64 1019.82 1020.05 1020.26 1020.46 1020.54 1020.63 1020.74 1020.64 1021.16 1021.71 1021.75 1021.76 1021.72 1021.71 1021.77 1021.80
1015.26 1015.25 1015.28 1015.30 1015.31 1015.28 1015.23 1015.11 1014.94 1014.66 1014.66 1014.60 1014.64 1015.07 1015.44 1015.72 1016.19 1016.79 1017.15 1017.52 1017.56 1017.96 1018.21 1018.61 1018.93 1019.04 1019.32 1019.65 1019.81 1019.99 1020.13 1020.32 1020.57 1020.71 1020.78 1020.67 1021.20 1021.71 1021.73 1021.58 1021.44 1021.46 1021.50
1014.84 1014.80 1014.76 1014.81 1014.73 1014.68 1014.66 1014.64 1014.37 1014.21 1014.06 1014.28 1014.21 1014.42 1014.84 1015.18 1015.62 1016.07 1016.53 1016.79 1017.06 1017.55 1017.99 1018.34 1018.66 1019.07 1019.15 1019.32 1019.47 1019.71 1019.95 1020.12 1020.19 1020.40 1020.64 1020.75 1020.88 1020.90 1021.51 1021.55 1021.51 1021.43 1021.41
1014.19 1014.21 1014.21 1014.20 1014.15 1014.13 1014.15 1014.05 1014.05 1013.91 1013.68 1013.55 1013.77 1013.88 1014.19 1014.56 1015.07 1015.43 1015.89 1016.15 1016.49 1017.13 1017.64 1017.97 1018.28 1018.60 1019.00 1019.21 1019.28 1019.40 1019.61 1019.80 1019.93 1020.17 1020.24 1020.51 1020.61 1020.81 1020.73 1021.17 1021.40 1021.43 1021.40
1013.70 1013.62 1013.66 1013.59 1013.51 1013.51 1013.55 1013.60 1013.59 1013.53 1013.47 1013.15 1013.09 1013.27 1013.43 1013.82 1014.44 1014.99 1015.52 1015.85 1016.14 1016.76 1017.27 1017.63 1018.01 1018.22 1018.53 1018.94 1019.27 1019.39 1019.44 1019.50 1019.52 1019.72 1019.78 1020.07 1020.34 1020.60 1020.62 1020.60 1020.72 1020.88 1021.20
1013.02 1012.92 1012.85 1012.91 1012.90 1012.97 1012.84 1012.80 1012.85 1012.68 1012.82 1012.76 1012.75 1012.69 1012.66 1013.17 1013.79 1014.34 1014.73 1015.47 1015.71 1016.13 1016.48 1016.96 1017.54 1017.92 1018.06 1018.44 1018.79 1019.01 1019.27 1019.47 1019.49 1019.38 1019.47 1019.52 1019.64 1020.13 1020.21 1020.27 1020.43 1020.46 1020.52
1012.29 1012.21 1012.07 1012.06 1012.17 1012.24 1012.28 1012.14 1012.11 1012.07 1012.05 1012.03 1012.14 1012.16 1012.39 1012.85 1013.23 1013.49 1014.09 1014.76 1015.25 1015.52 1015.96 1016.44 1016.92 1017.48 1017.79 1018.11 1018.20 1018.40 1018.39 1018.67 1018.88 1019.04 1019.06 1019.22 1019.28 1019.51 1019.85 1019.99 1020.17 1020.44 1020.36
1011.49 1011.41 1011.35 1011.18 1011.25 1011.35 1011.62 1011.73 1011.70 1011.72 1011.58 1011.42 1011.43 1011.53 1011.76 1012.03 1012.52 1012.93 1013.30 1014.00 1014.72 1015.05 1015.44 1015.76 1016.33 1016.74 1017.08 1017.48 1017.59 1017.53 1017.59 1017.33 1017.45 1018.15 1018.56 1018.75 1019.03 1019.18 1019.41 1019.77 1019.99 1020.24 1020.23
1010.44 1010.61 1010.56 1010.51 1010.44 1010.49 1010.75 1010.91 1010.89 1010.75 1010.52 1010.57 1010.78 1011.18 1011.21 1011.45 1011.68 1012.09 1012.63 1013.16 1013.92 1014.53 1015.06 1015.49 1015.85 1016.11 1016.62 1016.79 1017.42 1017.33 1017.08 1017.01 1017.33 1017.59 1018.09 1018.22 1018.56 1018.70 1018.96 1019.42 1019.67 1019.84 1019.98
1009.70 1009.76 1009.65 1009.72 1009.70 1009.81 1009.89 1010.03 1009.95 1009.89 1009.85 1009.97 1010.14 1010.21 1010.61 1011.06 1011.20 1011.43 1011.88 1012.56 1013.17 1013.72 1014.29 1014.74 1015.36 1015.90 1015.89 1016.21 1016.47 1016.97 1017.25 1017.37 1017.26 1017.27 1017.41 1018.12 1018.55 1018.73 1018.67 1018.79 1019.22 1019.35 1019.59
1008.75 1008.78 1008.76 1008.79 1008.84 1009.01 1009.18 1009.28 1009.29 1009.27 1009.50 1009.53 1009.57 1009.57 1009.70 1010.18 1010.79 1010.76 1011.18 1011.78 1012.38 1013.11 1013.61 1014.28 1014.61 1015.31 1015.73 1015.79 1015.98 1016.25 1016.34 1016.61 1016.91 1017.27 1017.53 1017.87 1017.76 1017.94 1018.37 1018.52 1018.73 1018.83 1019.04
Thickness
5758 5763 5757 5757 5756 5756 5757 5756 5755 5753 5753 5752 5751 5750 5748 5746 5745 5743 5743 5743 5743 5744 5744 5741 5739 5737 5735 5734 5732 5732 5732 5732 5731 5730 5729 5728 5727 5727 5725 5724 5724 5722 5718
5754 5759 5754 5753 5753 5753 5752 5752 5751 5750 5749 5749 5747 5747 5745 5744 5743 5743 5741 5742 5743 5742 5741 5739 5736 5735 5733 5730 5729 5728 5729 5729 5728 5727 5727 5726 5725 5725 5724 5722 5720 5718 5715
5752 5754 5750 5749 5749 5748 5748 5748 5747 5747 5746 5745 5744 5743 5743 5742 5741 5741 5741 5740 5741 5740 5738 5737 5734 5733 5729 5728 5727 5726 5725 5726 5726 5726 5727 5727 5724 5721 5720 5719 5717 5715 5713
5747 5750 5750 5746 5745 5744 5744 5744 5744 5744 5744 5742 5741 5741 5739 5740 5739 5738 5738 5738 5738 5737 5735 5733 5732 5729 5727 5726 5725 5723 5722 5722 5724 5726 5728 5725 5722 5718 5717 5716 5714 5712 5711
5747 5748 5747 5742 5741 5741 5741 5740 5741 5740 5740 5739 5739 5738 5739 5737 5738 5736 5736 5735 5734 5734 5732 5729 5728 5727 5724 5723 5722 5721 5719 5720 5723 5725 5723 5721 5720 5715 5714 5713 5711 5709 5708
5744 5745 5743 5738 5737 5738 5737 5737 5736 5737 5736 5736 5737 5736 5736 5736 5735 5734 5732 5731 5731 5730 5728 5727 5724 5723 5722 5720 5719 5719 5717 5718 5720 5722 5720 5717 5717 5713 5711 5709 5707 5706 5705
5737 5740 5738 5734 5733 5732 5732 5733 5732 5731 5732 5732 5732 5733 5733 5733 5732 5730 5729 5727 5727 5726 5724 5723 5722 5719 5720 5718 5716 5715 5715 5716 5718 5719 5718 5714 5712 5710 5708 5706 5704 5702 5701
5725 5729 5734 5731 5728 5727 5728 5727 5727 5726 5726 5726 5726 5727 5728 5729 5729 5726 5724 5723 5723 5723 5721 5720 5718 5717 5715 5715 5714 5712 5712 5713 5716 5716 5713 5711 5708 5707 5705 5702 5700 5698 5696
5716 5721 5724 5728 5725 5723 5722 5722 5721 5721 5721 5720 5721 5722 5722 5722 5723 5722 5721 5720 5718 5718 5718 5716 5715 5714 5712 5711 5710 5710 5709 5711 5713 5712 5710 5707 5705 5704 5703 5700 5698 5696 5693
5706 5711 5715 5720 5723 5723 5719 5717 5716 5716 5715 5716 5715 5716 5716 5717 5717 5717 5716 5715 5715 5714 5713 5713 5712 5710 5709 5707 5707 5707 5706 5707 5709 5708 5708 5705 5702 5700 5699 5697 5694 5692 5690
5700 5704 5707 5712 5715 5718 5717 5715 5715 5714 5713 5712 5711 5710 5709 5711 5711 5711 5712 5711 5710 5710 5709 5708 5708 5706 5705 5703 5703 5703 5704 5707 5707 5706 5705 5699 5698 5697 5695 5692 5690 5688 5687
5689 5693 5698 5703 5706 5710 5713 5713 5713 5711 5710 5710 5709 5706 5705 5708 5709 5709 5708 5705 5704 5704 5704 5703 5702 5701 5701 5701 5698 5698 5704 5705 5704 5703 5701 5696 5695 5694 5691 5688 5686 5685 5683
5681 5685 5690 5695 5697 5703 5705 5710 5709 5709 5708 5706 5706 5708 5706 5705 5705 5705 5704 5701 5700 5698 5699 5699 5698 5699 5702 5701 5699 5699 5701 5702 5701 5699 5695 5692 5691 5690 5688 5685 5683 5681 5680
5675 5680 5683 5687 5690 5695 5698 5703 5707 5707 5706 5705 5704 5703 5703 5702 5701 5703 5702 5699 5699 5697 5699 5698 5699 5699 5698 5698 5698 5697 5697 5697 5697 5696 5691 5688 5686 5686 5684 5682 5680 5679 5677
5669 5673 5678 5680 5684 5687 5691 5695 5701 5704 5705 5704 5702 5704 5704 5701 5700 5700 5698 5696 5695 5697 5696 5696 5695 5695 5694 5695 5694 5693 5692 5692 5692 5691 5691 5685 5683 5682 5680 5678 5677 5676 5674
5663 5667 5670 5674 5677 5680 5682 5687 5693 5697 5700 5701 5703 5702 5703 5703 5700 5697 5695 5695 5695 5693 5693 5692 5693 5693 5692 5691 5690 5690 5688 5688 5687 5686 5687 5684 5681 5679 5678 5677 5675 5673 5672
5657 5662 5664 5668 5671 5674 5678 5680 5686 5691 5694 5697 5701 5701 5701 5701 5699 5696 5694 5693 5694 5691 5690 5690 5689 5690 5690 5688 5688 5686 5686 5685 5684 5683 5682 5683 5679 5676 5675 5674 5674 5672 5670
5648 5654 5659 5662 5666 5670 5674 5677 5682 5688 5692 5693 5696 5698 5699 5700 5698 5696 5695 5693 5692 5690 5687 5685 5686 5684 5685 5686 5685 5684 5682 5681 5681 5679 5678 5676 5676 5675 5672 5671 5670 5669 5668
5641 5647 5651 5656 5660 5664 5668 5671 5675 5679 5685 5691 5692 5695 5696 5697 5695 5695 5693 5691 5689 5687 5685 5683 5681 5681 5678 5679 5682 5683 5682 5680 5679 5676 5675 5673 5672 5671 5671 5668 5667 5665 5664
5631 5637 5643 5648 5654 5658 5663 5666 5669 5673 5677 5683 5689 5691 5694 5694 5693 5691 5688 5685 5685 5684 5683 5682 5678 5678 5677 5675 5674 5676 5677 5678 5678 5675 5674 5671 5668 5666 5667 5666 5664 5663 5661
5622 5628 5635 5640 5645 5649 5654 5659 5662 5667 5672 5676 5679 5684 5688 5689 5687 5686 5686 5681 5683 5682 5683 5681 5677 5674 5673 5673 5670 5671 5670 5671 5672 5673 5672 5670 5668 5663 5663 5662 5660 5660 5659
5610 5617 5625 5631 5635 5640 5644 5650 5656 5660 5666 5670 5674 5675 5677 5678 5681 5683 5683 5680 5679 5679 5680 5678 5676 5671 5669 5669 5665 5664 5664 5667 5670 5669 5669 5667 5665 5662 5659 5658 5656 5653 5653
5599 5607 5615 5623 5628 5632 5633 5637 5643 5648 5655 5661 5667 5672 5673 5673 5673 5677 5678 5678 5674 5673 5675 5675 5673 5670 5666 5665 5667 5664 5659 5664 5670 5668 5666 5665 5662 5660 5656 5653 5652 5648 5648
5592 5597 5603 5610 5618 5624 5625 5628 5632 5638 5644 5652 5656 5660 5665 5665 5668 5670 5672 5675 5672 5668 5668 5668 5668 5668 5664 5663 5660 5665 5668 5669 5660 5658 5662 5662 5660 5658 5655 5651 5648 5644 5643
5585 5589 5594 5598 5604 5609 5614 5619 5623 5629 5635 5637 5642 5648 5652 5655 5656 5659 5663 5666 5666 5665 5665 5665 5662 5661 5664 5661 5660 5657 5657 5656 5660 5657 5656 5649 5649 5648 5649 5650 5644 5640 5638
5578 5583 5588 5591 5595 5597 5600 5605 5611 5614 5615 5619 5625 5630 5639 5644 5645 5651 5655 5656 5658 5658 5658 5657 5659 5656 5655 5657 5656 5656 5657 5653 5651 5647 5645 5644 5644 5644 5644 5643 5639 5637 5635